Reidsville, NC

11:25 AM EDT on June 27, 2017 (GMT -0400)
Reidsville

Weather History for KSIF - November, 2012

Change the Weather History Date:

Monday, November 19, 2012

  Actual Average (KGSO) Record (KGSO)
Temperature  
Mean Temperature 46 °F -  
Max Temperature 56 °F 59 °F 80 °F (1906)
Min Temperature 36 °F 38 °F 16 °F (2014)
Degree Days  
Heating Degree Days 19    
Moisture  
Dew Point 40 °F    
Average Humidity 75    
Maximum Humidity 99    
Minimum Humidity 59    
Precipitation  
Precipitation 0.00 in - - ()
Sea Level Pressure  
Sea Level Pressure 30.31 in    
Wind  
Wind Speed 4 mph (NNE)    
Max Wind Speed 9 mph    
Max Gust Speed 16 mph    
Visibility 10 miles    
Events      
Averages and records for this station are not official NWS values.
T = Trace of Precipitation, MM = Missing Value Source: NWS Daily Summary

Daily Weather History Graph

Daily Weather History Graph

Search for Another Location

Airport or City:

Trip Planner

Search our weather history database for the weather conditions in past years. The results will help you decide how hot, cold, wet, or windy it might be!

Date:

Astronomy

Nov. 19, 2012 Rise Set
Actual Time 7:01 AM EST 5:08 PM EST
Civil Twilight 6:33 AM EST 5:35 PM EST
Nautical Twilight 6:02 AM EST 6:07 PM EST
Astronomical Twilight 5:31 AM EST 6:37 PM EST
Moon 12:06 PM EST (11/19) 11:28 PM EST (11/19)
Length of Visible Light 11h 02m
Length of Day
10h 06m
Waxing Crescent, 40% of the Moon is Illuminated
Nov 19
Waxing Crescent
Nov 20
First Quarter
Nov 28
Full
Dec 6
Last Quarter
Dec 13
New

Hourly Weather History & Observations

Time (EST) Temp. Dew Point Humidity Pressure Visibility Wind Dir Wind Speed Gust Speed Precip Events Conditions
12:15 AM 49.3 °F 39.2 °F 68% 30.40 in 10.0 mi NE 5.8 mph - N/A   Overcast
12:35 AM 49.1 °F 39.2 °F 69% 30.40 in 10.0 mi NNE 6.9 mph - N/A   Overcast
1:15 AM 49.1 °F 39.4 °F 69% 30.39 in 10.0 mi NNE 4.6 mph - N/A   Overcast
1:35 AM 49.1 °F 39.6 °F 70% 30.39 in 10.0 mi NE 5.8 mph - N/A   Overcast
1:55 AM 49.1 °F 39.6 °F 70% 30.39 in 10.0 mi NNE 3.5 mph - N/A   Overcast
2:15 AM 48.9 °F 39.6 °F 70% 30.39 in 10.0 mi NNE 3.5 mph - N/A   Overcast
2:35 AM 48.9 °F 39.7 °F 71% 30.38 in 10.0 mi NNE 5.8 mph - N/A   Overcast
2:55 AM 48.7 °F 39.7 °F 71% 30.38 in 10.0 mi NE 5.8 mph - N/A   Overcast
3:15 AM 48.7 °F 40.1 °F 72% 30.37 in 10.0 mi Calm Calm - N/A   Overcast
3:35 AM 48.7 °F 40.5 °F 73% 30.37 in 10.0 mi NNE 4.6 mph - N/A   Overcast
3:55 AM 48.7 °F 41.0 °F 75% 30.36 in 10.0 mi Calm Calm - N/A   Overcast
4:15 AM 48.7 °F 41.5 °F 76% 30.36 in 10.0 mi NNE 4.6 mph - N/A   Overcast
4:35 AM 48.6 °F 41.9 °F 78% 30.36 in 10.0 mi NNE 6.9 mph - N/A   Overcast
4:55 AM 48.2 °F 41.9 °F 79% 30.36 in 10.0 mi NNE 8.1 mph - N/A   Overcast
5:15 AM 48.2 °F 41.9 °F 79% 30.37 in 10.0 mi NNE 6.9 mph - N/A   Overcast
5:35 AM 48.2 °F 41.7 °F 78% 30.37 in 10.0 mi NNE 4.6 mph - N/A   Overcast
5:55 AM 48.4 °F 41.4 °F 77% 30.36 in 10.0 mi NNE 6.9 mph - N/A   Overcast
6:15 AM 48.6 °F 41.2 °F 76% 30.36 in 10.0 mi NNE 4.6 mph - N/A   Overcast
6:35 AM 48.6 °F 41.2 °F 76% 30.37 in 10.0 mi NNE 5.8 mph - N/A   Overcast
6:55 AM 48.6 °F 41.0 °F 75% 30.37 in 10.0 mi NNE 6.9 mph - N/A   Overcast
7:15 AM 48.6 °F 41.0 °F 75% 30.37 in 10.0 mi NNE 6.9 mph - N/A   Overcast
7:35 AM 48.7 °F 41.0 °F 75% 30.37 in 10.0 mi NNE 5.8 mph - N/A   Overcast
7:55 AM 48.7 °F 41.0 °F 75% 30.36 in 10.0 mi NNE 3.5 mph - N/A   Overcast
8:35 AM 49.5 °F 41.0 °F 73% 30.36 in 10.0 mi NE 4.6 mph - N/A   Overcast
8:55 AM 49.8 °F 41.4 °F 73% 30.36 in 10.0 mi NNE 5.8 mph - N/A   Overcast
9:15 AM 50.4 °F 41.4 °F 71% 30.36 in 10.0 mi NE 6.9 mph - N/A   Overcast
9:35 AM 50.7 °F 41.2 °F 70% 30.36 in 10.0 mi NE 5.8 mph - N/A   Overcast
9:55 AM 50.9 °F 40.8 °F 68% 30.36 in 10.0 mi NE 9.2 mph - N/A   Overcast
10:15 AM 51.1 °F 40.5 °F 67% 30.37 in 10.0 mi NNE 8.1 mph - N/A   Overcast
10:35 AM 51.4 °F 40.5 °F 66% 30.37 in 10.0 mi NE 6.9 mph 16.1 mph N/A   Overcast
10:55 AM 51.8 °F 40.5 °F 65% 30.36 in 10.0 mi NNE 3.5 mph - N/A   Overcast
11:15 AM 52.3 °F 40.6 °F 64% 30.35 in 10.0 mi NE 6.9 mph - N/A   Overcast
11:35 AM 52.9 °F 40.8 °F 64% 30.34 in 10.0 mi NNE 6.9 mph - N/A   Overcast
11:55 AM 53.4 °F 41.0 °F 63% 30.33 in 10.0 mi North 6.9 mph - N/A   Overcast
12:15 PM 53.8 °F 41.2 °F 62% 30.32 in 10.0 mi NE 5.8 mph - N/A   Overcast
12:35 PM 54.1 °F 41.4 °F 62% 30.31 in 10.0 mi NE 6.9 mph - N/A   Overcast
12:55 PM 54.3 °F 41.4 °F 62% 30.30 in 10.0 mi NE 5.8 mph - N/A   Overcast
1:15 PM 55.0 °F 41.5 °F 60% 30.29 in 10.0 mi North 4.6 mph - N/A   Overcast
1:35 PM 55.8 °F 42.1 °F 60% 30.28 in 10.0 mi NNE 3.5 mph - N/A   Overcast
1:55 PM 55.9 °F 41.9 °F 59% 30.28 in 10.0 mi North 4.6 mph - N/A   Overcast
2:15 PM 56.1 °F 42.3 °F 60% 30.27 in 10.0 mi Calm Calm - N/A   Overcast
2:35 PM 56.5 °F 42.4 °F 59% 30.27 in 10.0 mi Calm Calm - N/A   Overcast
2:55 PM 56.5 °F 42.6 °F 60% 30.27 in 10.0 mi NNE 6.9 mph - N/A   Mostly Cloudy
3:15 PM 56.5 °F 42.8 °F 60% 30.26 in 10.0 mi NNE 3.5 mph - N/A   Mostly Cloudy
3:35 PM 56.8 °F 42.6 °F 59% 30.26 in 10.0 mi NE 5.8 mph - N/A   Scattered Clouds
3:55 PM 56.8 °F 42.8 °F 59% 30.26 in 10.0 mi North 3.5 mph - N/A   Scattered Clouds
4:15 PM 56.3 °F 42.8 °F 61% 30.26 in 10.0 mi NNE 3.5 mph - N/A   Scattered Clouds
4:35 PM 56.3 °F 43.0 °F 61% 30.26 in 10.0 mi Calm Calm - N/A   Overcast
4:55 PM 55.6 °F 42.6 °F 62% 30.25 in 10.0 mi Calm Calm - N/A   Overcast
5:15 PM 54.1 °F 42.4 °F 65% 30.25 in 10.0 mi Calm Calm - N/A   Overcast
5:35 PM 52.5 °F 42.1 °F 68% 30.26 in 10.0 mi Calm Calm - N/A   Scattered Clouds
5:55 PM 50.7 °F 41.7 °F 71% 30.26 in 10.0 mi Calm Calm - N/A   Clear
6:15 PM 49.3 °F 41.2 °F 74% 30.26 in 10.0 mi Calm Calm - N/A   Clear
6:35 PM 46.4 °F 40.6 °F 80% 30.26 in 10.0 mi Calm Calm - N/A   Clear
6:55 PM 43.2 °F 39.6 °F 87% 30.26 in 10.0 mi Calm Calm - N/A   Clear
7:15 PM 41.4 °F 38.8 °F 91% 30.26 in 10.0 mi Calm Calm - N/A   Clear
7:35 PM 40.3 °F 38.3 °F 93% 30.26 in 10.0 mi Calm Calm - N/A   Clear
7:55 PM 40.3 °F 38.7 °F 94% 30.25 in 10.0 mi Calm Calm - N/A   Clear
8:15 PM 39.9 °F 38.5 °F 95% 30.24 in 10.0 mi Calm Calm - N/A   Clear
8:35 PM 38.8 °F 37.2 °F 94% 30.24 in 10.0 mi Calm Calm - N/A   Clear
8:55 PM 38.7 °F 37.6 °F 96% 30.25 in 10.0 mi Calm Calm - N/A   Clear
9:15 PM 37.9 °F 37.0 °F 97% 30.24 in 10.0 mi Calm Calm - N/A   Clear
9:35 PM 37.6 °F 36.9 °F 97% 30.24 in 10.0 mi Calm Calm - N/A   Clear
9:55 PM 37.2 °F 36.5 °F 97% 30.24 in 10.0 mi Calm Calm - N/A   Clear
10:15 PM 37.0 °F 36.3 °F 97% 30.23 in 7.0 mi Calm Calm - N/A   Clear
10:35 PM 37.2 °F 36.7 °F 98% 30.22 in 10.0 mi Calm Calm - N/A   Clear
10:55 PM 36.9 °F 36.3 °F 98% 30.21 in 7.0 mi Calm Calm - N/A   Clear
11:15 PM 36.5 °F 36.1 °F 99% 30.21 in 7.0 mi Calm Calm - N/A   Clear
11:35 PM 36.3 °F 36.0 °F 99% 30.22 in 7.0 mi Calm Calm - N/A   Clear
11:55 PM 36.1 °F 35.8 °F 99% 30.21 in 7.0 mi Calm Calm - N/A   Clear